TDR9000 LLBG-LDZA

Flight info

Callsign TDR9000
Flight time N/A
Altitude 36000
Route SUVAS N128 OTHON UN128 RDS UL609 MES UG18 FSK UL608 DISOR DCT LONTA UL608 DOLEV DCT TIVNU DCT TEBLI
Aircraft A320/M-SDE3FGHIRWY/LB1

Departure

Time N/A
Airport Ben Gurion International Airport (LLBG)

Arrival

Time 2026-04-30 11:57
Airport Zagreb Franjo Tuđman International Airport (LDZA)
Time Latitude Longitude Altitude Speed Heading
2026-04-30 08:55 32.04674 34.26899 15895 ft 361 kts 274°
2026-04-30 08:55 32.05030 34.23963 16471 ft 364 kts 284°
2026-04-30 08:55 32.05879 34.21146 17050 ft 367 kts 295°
2026-04-30 08:56 32.07150 34.18531 17618 ft 368 kts 301°
2026-04-30 08:56 32.08482 34.15941 18134 ft 370 kts 300°
2026-04-30 08:56 32.09817 34.13322 18648 ft 373 kts 300°
2026-04-30 08:56 32.11153 34.10689 19179 ft 375 kts 300°
2026-04-30 08:57 32.12492 34.08047 19728 ft 376 kts 300°
2026-04-30 08:57 32.13838 34.05388 20274 ft 377 kts 300°
2026-04-30 08:57 32.15183 34.02731 20816 ft 378 kts 300°
2026-04-30 08:57 32.16535 34.00060 21368 ft 380 kts 300°
2026-04-30 08:58 32.17938 33.97405 21900 ft 381 kts 302°
2026-04-30 08:58 32.19437 33.94824 22412 ft 383 kts 304°
2026-04-30 08:58 32.21004 33.92273 22910 ft 385 kts 305°
2026-04-30 08:58 32.22579 33.89764 23388 ft 386 kts 305°
2026-04-30 08:59 32.24180 33.87208 23821 ft 388 kts 304°
2026-04-30 08:59 32.25772 33.84628 24209 ft 389 kts 304°
2026-04-30 08:59 32.27354 33.82032 24589 ft 390 kts 304°
2026-04-30 08:59 32.28931 33.79415 24956 ft 392 kts 303°
2026-04-30 09:00 32.30507 33.76781 25316 ft 393 kts 303°
2026-04-30 09:00 32.32087 33.74139 25666 ft 394 kts 303°
2026-04-30 09:00 32.33675 33.71480 26011 ft 396 kts 303°
2026-04-30 09:00 32.35267 33.68818 26356 ft 397 kts 303°
2026-04-30 09:01 32.36864 33.66148 26696 ft 399 kts 303°
2026-04-30 09:01 32.38470 33.63468 27016 ft 399 kts 303°
2026-04-30 09:01 32.40077 33.60782 27320 ft 401 kts 303°
2026-04-30 09:01 32.41689 33.58081 27644 ft 403 kts 303°
2026-04-30 09:02 32.44934 33.52641 28284 ft 406 kts 303°
2026-04-30 09:02 32.46567 33.49908 28585 ft 407 kts 303°
2026-04-30 09:02 32.48200 33.47174 28860 ft 407 kts 303°
2026-04-30 09:03 32.49818 33.44461 29131 ft 409 kts 303°
2026-04-30 09:03 32.51463 33.41694 29418 ft 411 kts 303°
2026-04-30 09:03 32.53110 33.38922 29683 ft 412 kts 303°
2026-04-30 09:03 32.54761 33.36138 29931 ft 414 kts 303°
2026-04-30 09:04 32.56419 33.33343 30177 ft 415 kts 303°
2026-04-30 09:04 32.58083 33.30538 30380 ft 416 kts 303°
2026-04-30 09:04 32.59751 33.27727 30569 ft 418 kts 303°
2026-04-30 09:04 32.61426 33.24906 30795 ft 418 kts 303°
2026-04-30 09:05 32.63097 33.22090 31082 ft 416 kts 303°
2026-04-30 09:05 32.64759 33.19279 31357 ft 416 kts 303°
2026-04-30 09:05 32.66416 33.16474 31617 ft 415 kts 303°
2026-04-30 09:05 32.68071 33.13675 31894 ft 414 kts 303°
2026-04-30 09:06 32.69723 33.10879 32175 ft 413 kts 303°
2026-04-30 09:06 32.71368 33.08088 32444 ft 412 kts 303°
2026-04-30 09:06 32.73012 33.05300 32705 ft 412 kts 303°
2026-04-30 09:06 32.74654 33.02514 32968 ft 411 kts 303°
2026-04-30 09:07 32.76288 32.99738 33238 ft 410 kts 303°
2026-04-30 09:07 32.77895 32.97001 33507 ft 409 kts 303°
2026-04-30 09:07 32.79526 32.94227 33775 ft 408 kts 303°
2026-04-30 09:07 32.81152 32.91463 34043 ft 408 kts 303°
2026-04-30 09:08 32.82775 32.88701 34269 ft 407 kts 303°
2026-04-30 09:08 32.84415 32.85904 34474 ft 407 kts 303°
2026-04-30 09:08 32.86011 32.83180 34671 ft 407 kts 302°
2026-04-30 09:08 32.87628 32.80417 34863 ft 407 kts 302°
2026-04-30 09:09 32.89238 32.77671 35030 ft 406 kts 302°
2026-04-30 09:09 32.90855 32.74913 35204 ft 406 kts 302°
2026-04-30 09:09 32.92467 32.72156 35381 ft 406 kts 302°
2026-04-30 09:09 32.94080 32.69392 35551 ft 406 kts 302°
2026-04-30 09:10 32.95689 32.66630 35719 ft 406 kts 302°
2026-04-30 09:10 32.97306 32.63856 35882 ft 406 kts 302°
2026-04-30 09:10 32.98912 32.61092 36047 ft 406 kts 302°
2026-04-30 09:10 33.00520 32.58325 36090 ft 406 kts 302°
2026-04-30 09:11 33.03727 32.52803 36092 ft 405 kts 302°
2026-04-30 09:11 33.06913 32.47316 36088 ft 405 kts 302°
2026-04-30 09:12 33.10112 32.41788 36085 ft 405 kts 302°
2026-04-30 09:12 33.13316 32.36260 36091 ft 405 kts 302°
2026-04-30 09:13 33.16519 32.30736 36089 ft 405 kts 302°
2026-04-30 09:13 33.19717 32.25192 36091 ft 405 kts 302°
2026-04-30 09:14 33.22901 32.19653 36090 ft 405 kts 302°
2026-04-30 09:14 33.26092 32.14108 36091 ft 405 kts 302°
2026-04-30 09:15 33.29281 32.08560 36089 ft 405 kts 302°
2026-04-30 09:15 33.32475 32.03006 36094 ft 405 kts 302°
2026-04-30 09:16 33.35659 31.97446 36095 ft 405 kts 302°
2026-04-30 09:16 33.38817 31.91917 36097 ft 405 kts 302°
2026-04-30 09:17 33.41996 31.86343 36099 ft 405 kts 302°
2026-04-30 09:17 33.45175 31.80773 36093 ft 405 kts 302°
2026-04-30 09:18 33.48356 31.75183 36099 ft 405 kts 302°
2026-04-30 09:18 33.51530 31.69604 36099 ft 405 kts 302°
2026-04-30 09:19 33.54709 31.64021 36094 ft 405 kts 302°
2026-04-30 09:19 33.57856 31.58478 36091 ft 404 kts 302°
2026-04-30 09:20 33.61014 31.52882 36093 ft 405 kts 302°
2026-04-30 09:20 33.64170 31.47293 36093 ft 405 kts 302°
2026-04-30 09:21 33.67331 31.41698 36089 ft 405 kts 302°
2026-04-30 09:21 33.70491 31.36091 36092 ft 405 kts 302°
2026-04-30 09:22 33.73626 31.30513 36094 ft 405 kts 302°
2026-04-30 09:22 33.76780 31.24901 36094 ft 405 kts 302°
2026-04-30 09:23 33.79924 31.19288 36088 ft 405 kts 302°
2026-04-30 09:23 33.83071 31.13670 36092 ft 405 kts 302°
2026-04-30 09:24 33.86216 31.08043 36093 ft 405 kts 302°
2026-04-30 09:24 33.89354 31.02425 36091 ft 405 kts 302°
2026-04-30 09:25 33.92487 30.96797 36090 ft 405 kts 302°
2026-04-30 09:25 33.95622 30.91154 36086 ft 405 kts 302°
2026-04-30 09:26 33.98736 30.85546 36089 ft 406 kts 302°
2026-04-30 09:26 34.01873 30.79896 36086 ft 406 kts 302°
2026-04-30 09:27 34.05010 30.74239 36084 ft 406 kts 302°
2026-04-30 09:27 34.08144 30.68585 36088 ft 406 kts 302°
2026-04-30 09:28 34.11268 30.62921 36081 ft 406 kts 302°
2026-04-30 09:28 34.14398 30.57255 36093 ft 406 kts 302°
2026-04-30 09:29 34.17526 30.51582 36088 ft 406 kts 302°
2026-04-30 09:29 34.20621 30.45934 36090 ft 406 kts 301°
2026-04-30 09:30 34.23732 30.40253 36091 ft 405 kts 302°
2026-04-30 09:30 34.26842 30.34565 36081 ft 405 kts 302°
2026-04-30 09:31 34.29947 30.28881 36080 ft 405 kts 302°
2026-04-30 09:31 34.33051 30.23203 36076 ft 405 kts 302°
2026-04-30 09:32 34.36153 30.17509 36079 ft 405 kts 302°
2026-04-30 09:32 34.39252 30.11823 36080 ft 405 kts 302°
2026-04-30 09:33 34.42327 30.06158 36082 ft 405 kts 302°
2026-04-30 09:33 34.45455 30.00485 36080 ft 406 kts 306°
2026-04-30 09:34 34.49330 29.95472 36080 ft 408 kts 312°
2026-04-30 09:34 34.53320 29.90582 36081 ft 408 kts 312°
2026-04-30 09:35 34.57304 29.85679 36083 ft 408 kts 312°
2026-04-30 09:35 34.61285 29.80773 36079 ft 408 kts 312°
2026-04-30 09:36 34.65254 29.75856 36080 ft 407 kts 311°
2026-04-30 09:36 34.69222 29.70934 36080 ft 407 kts 312°
2026-04-30 09:37 34.73163 29.66051 36081 ft 407 kts 312°
2026-04-30 09:37 34.77127 29.61129 36084 ft 407 kts 312°
2026-04-30 09:38 34.81091 29.56205 36085 ft 407 kts 312°
2026-04-30 09:38 34.85046 29.51287 36076 ft 407 kts 312°
2026-04-30 09:39 34.88995 29.46358 36077 ft 406 kts 312°
2026-04-30 09:39 34.92273 29.42256 36079 ft 406 kts 312°
2026-04-30 09:40 34.96218 29.37310 36082 ft 407 kts 312°
2026-04-30 09:40 35.01037 29.31852 36079 ft 409 kts 320°
2026-04-30 09:41 35.04863 29.28384 36079 ft 409 kts 320°
2026-04-30 09:41 35.09459 29.24194 36064 ft 416 kts 320°
2026-04-30 09:42 35.14101 29.19959 36064 ft 422 kts 320°
2026-04-30 09:42 35.18826 29.15640 36066 ft 426 kts 320°
2026-04-30 09:43 35.23589 29.11276 36065 ft 429 kts 320°
2026-04-30 09:43 35.28370 29.06891 36065 ft 429 kts 320°
2026-04-30 09:44 35.33156 29.02498 36065 ft 430 kts 320°
2026-04-30 09:44 35.37840 28.98187 36071 ft 430 kts 320°
2026-04-30 09:45 35.42624 28.93767 36078 ft 430 kts 320°
2026-04-30 09:45 35.47406 28.89355 36079 ft 430 kts 320°
2026-04-30 09:46 35.52183 28.84945 36084 ft 430 kts 320°
2026-04-30 09:46 35.56962 28.80520 36080 ft 430 kts 320°
2026-04-30 09:47 35.61733 28.76098 36079 ft 430 kts 320°
2026-04-30 09:47 35.66504 28.71670 36082 ft 429 kts 320°
2026-04-30 09:48 35.71268 28.67239 36086 ft 429 kts 320°
2026-04-30 09:48 35.75999 28.62819 36081 ft 429 kts 320°
2026-04-30 09:49 35.80761 28.58378 36082 ft 430 kts 320°
2026-04-30 09:49 35.85524 28.53926 36083 ft 429 kts 320°
2026-04-30 09:50 35.90287 28.49475 36082 ft 429 kts 320°
2026-04-30 09:50 35.95048 28.45015 36081 ft 429 kts 320°
2026-04-30 09:51 35.99807 28.40546 36083 ft 429 kts 320°
2026-04-30 09:51 36.04558 28.36082 36071 ft 429 kts 320°
2026-04-30 09:52 36.09304 28.31605 36068 ft 429 kts 320°
2026-04-30 09:52 36.14020 28.27147 36061 ft 429 kts 320°
2026-04-30 09:53 36.18763 28.22657 36063 ft 429 kts 320°
2026-04-30 09:53 36.23507 28.18161 36061 ft 429 kts 320°
2026-04-30 09:54 36.28244 28.13665 36068 ft 429 kts 320°
2026-04-30 09:54 36.32984 28.09161 36071 ft 429 kts 320°
2026-04-30 09:55 36.37428 28.04257 36073 ft 427 kts 315°
2026-04-30 09:55 36.41781 27.99229 36073 ft 427 kts 315°
2026-04-30 09:56 36.46127 27.94189 36070 ft 427 kts 315°
2026-04-30 09:56 36.50485 27.89153 36065 ft 428 kts 315°
2026-04-30 09:57 36.54805 27.84151 36061 ft 428 kts 315°
2026-04-30 09:57 36.59150 27.79104 36052 ft 427 kts 314°
2026-04-30 09:58 36.63496 27.74047 36048 ft 427 kts 315°
2026-04-30 09:58 36.67839 27.68993 36052 ft 427 kts 314°
2026-04-30 09:59 36.76517 27.58863 36049 ft 428 kts 314°
2026-04-30 10:00 36.83001 27.51276 36051 ft 427 kts 314°
2026-04-30 10:01 36.89484 27.43665 36051 ft 427 kts 314°
2026-04-30 10:02 36.95962 27.36028 36052 ft 427 kts 314°
2026-04-30 10:02 37.00282 27.30930 36056 ft 427 kts 314°
2026-04-30 10:03 37.04603 27.25825 36056 ft 426 kts 314°
2026-04-30 10:03 37.08930 27.20713 36062 ft 428 kts 314°
2026-04-30 10:04 37.13262 27.15596 36066 ft 428 kts 314°
2026-04-30 10:04 37.17582 27.10471 36058 ft 427 kts 314°
2026-04-30 10:05 37.21875 27.05361 36065 ft 428 kts 314°
2026-04-30 10:05 37.26227 27.00180 36065 ft 429 kts 314°
2026-04-30 10:06 37.30524 26.95061 36065 ft 429 kts 314°
2026-04-30 10:06 37.34778 26.89975 36066 ft 429 kts 314°
2026-04-30 10:07 37.39101 26.84790 36071 ft 430 kts 314°
2026-04-30 10:07 37.43536 26.79719 36072 ft 431 kts 316°
2026-04-30 10:08 37.48131 26.74851 36074 ft 432 kts 317°
2026-04-30 10:08 37.52734 26.69991 36075 ft 432 kts 317°
2026-04-30 10:09 37.57292 26.65079 36073 ft 432 kts 316°
2026-04-30 10:09 37.61839 26.60125 36070 ft 432 kts 316°
2026-04-30 10:10 37.66381 26.55174 36071 ft 432 kts 316°
2026-04-30 10:10 37.70905 26.50249 36073 ft 432 kts 316°
2026-04-30 10:11 37.75462 26.45304 36074 ft 432 kts 316°
2026-04-30 10:11 37.80020 26.40353 36052 ft 432 kts 316°
2026-04-30 10:12 37.84572 26.35388 36077 ft 432 kts 316°
2026-04-30 10:12 37.89122 26.30412 36077 ft 432 kts 316°
2026-04-30 10:13 37.93665 26.25428 36071 ft 432 kts 316°
2026-04-30 10:13 37.98204 26.20429 36075 ft 432 kts 316°
2026-04-30 10:14 38.02717 26.15457 36076 ft 432 kts 316°
2026-04-30 10:14 38.09516 26.07948 36063 ft 432 kts 316°
2026-04-30 10:15 38.14057 26.02929 36062 ft 432 kts 316°
2026-04-30 10:15 38.18592 25.97900 36070 ft 433 kts 316°
2026-04-30 10:16 38.23119 25.92862 36068 ft 433 kts 316°
2026-04-30 10:17 38.30116 25.85553 36070 ft 435 kts 320°
2026-04-30 10:17 38.37381 25.78684 36065 ft 435 kts 320°
2026-04-30 10:18 38.42217 25.74026 36072 ft 435 kts 319°
2026-04-30 10:19 38.49420 25.66941 36074 ft 436 kts 319°
2026-04-30 10:19 38.54227 25.62222 36067 ft 435 kts 319°
2026-04-30 10:20 38.59039 25.57509 36069 ft 436 kts 319°
2026-04-30 10:20 38.66257 25.50426 36074 ft 436 kts 319°
2026-04-30 10:21 38.71068 25.45680 36072 ft 436 kts 319°
2026-04-30 10:21 38.75871 25.40931 36077 ft 436 kts 319°
2026-04-30 10:22 38.80667 25.36182 36071 ft 436 kts 319°
2026-04-30 10:22 38.85436 25.31450 36073 ft 436 kts 319°
2026-04-30 10:23 38.90235 25.26687 36077 ft 436 kts 319°
2026-04-30 10:23 38.95043 25.21905 36081 ft 436 kts 319°
2026-04-30 10:24 38.99701 25.17272 36081 ft 436 kts 319°
2026-04-30 10:24 39.04494 25.12489 36082 ft 436 kts 319°
2026-04-30 10:25 39.09284 25.07700 36085 ft 436 kts 319°
2026-04-30 10:25 39.14076 25.02906 36088 ft 436 kts 319°
2026-04-30 10:26 39.18827 24.98139 36087 ft 436 kts 319°
2026-04-30 10:26 39.23608 24.93330 36090 ft 436 kts 319°
2026-04-30 10:27 39.28386 24.88512 36092 ft 436 kts 319°
2026-04-30 10:27 39.33168 24.83697 36092 ft 436 kts 319°
2026-04-30 10:28 39.37941 24.78877 36090 ft 435 kts 319°
2026-04-30 10:28 39.42711 24.74051 36093 ft 435 kts 319°
2026-04-30 10:29 39.47482 24.69224 36097 ft 435 kts 319°
2026-04-30 10:29 39.52248 24.64389 36092 ft 435 kts 319°
2026-04-30 10:30 39.56981 24.59576 36096 ft 435 kts 319°
2026-04-30 10:30 39.61738 24.54722 36094 ft 435 kts 319°
2026-04-30 10:31 39.66488 24.49869 36097 ft 435 kts 319°
2026-04-30 10:31 39.71242 24.45004 36094 ft 435 kts 319°
2026-04-30 10:32 39.75989 24.40138 36096 ft 435 kts 319°
2026-04-30 10:32 39.80737 24.35272 36098 ft 434 kts 319°
2026-04-30 10:33 39.85448 24.30429 36100 ft 434 kts 319°
2026-04-30 10:33 39.90183 24.25551 36099 ft 434 kts 319°
2026-04-30 10:34 39.94147 24.21456 36097 ft 434 kts 319°
2026-04-30 10:34 39.98838 24.16596 36102 ft 433 kts 319°
2026-04-30 10:35 40.03555 24.11707 36097 ft 432 kts 319°
2026-04-30 10:35 40.08277 24.06811 36094 ft 433 kts 319°
2026-04-30 10:36 40.12990 24.01915 36096 ft 433 kts 319°
2026-04-30 10:36 40.17697 23.97005 36096 ft 432 kts 319°
2026-04-30 10:37 40.22312 23.92183 36097 ft 432 kts 319°
2026-04-30 10:37 40.26979 23.87306 36101 ft 432 kts 319°
2026-04-30 10:38 40.31679 23.82393 36099 ft 432 kts 319°
2026-04-30 10:38 40.36376 23.77479 36101 ft 431 kts 319°
2026-04-30 10:39 40.41065 23.72557 36100 ft 431 kts 319°
2026-04-30 10:39 40.45743 23.67631 36098 ft 431 kts 318°
2026-04-30 10:40 40.50383 23.62730 36096 ft 430 kts 318°
2026-04-30 10:40 40.55042 23.57794 36095 ft 430 kts 318°
2026-04-30 10:41 40.59694 23.52871 36092 ft 429 kts 318°
2026-04-30 10:41 40.64349 23.47936 36091 ft 429 kts 318°
2026-04-30 10:42 40.68987 23.42992 36084 ft 428 kts 318°
2026-04-30 10:42 40.73620 23.38052 36081 ft 428 kts 318°
2026-04-30 10:43 40.78175 23.33201 36074 ft 428 kts 318°
2026-04-30 10:43 40.82840 23.28230 36070 ft 427 kts 318°
2026-04-30 10:44 40.87458 23.23277 36074 ft 427 kts 318°
2026-04-30 10:44 40.92064 23.18327 36076 ft 426 kts 318°
2026-04-30 10:45 40.96669 23.13390 36070 ft 425 kts 318°
2026-04-30 10:45 41.01263 23.08446 36069 ft 426 kts 318°
2026-04-30 10:46 41.05853 23.03502 36075 ft 425 kts 318°
2026-04-30 10:46 41.10301 22.98425 36077 ft 422 kts 310°
2026-04-30 10:47 41.14099 22.92512 36082 ft 421 kts 308°
2026-04-30 10:47 41.17886 22.86587 36083 ft 421 kts 308°
2026-04-30 10:48 41.21670 22.80655 36087 ft 421 kts 308°
2026-04-30 10:48 41.25447 22.74711 36091 ft 421 kts 309°
2026-04-30 10:49 41.29348 22.68914 36097 ft 421 kts 310°
2026-04-30 10:49 41.33330 22.63201 36101 ft 421 kts 310°
2026-04-30 10:50 41.37263 22.57507 36113 ft 420 kts 310°
2026-04-30 10:50 41.41191 22.51741 36124 ft 420 kts 310°
2026-04-30 10:51 41.45103 22.45965 36134 ft 420 kts 310°
2026-04-30 10:51 41.49013 22.40193 36139 ft 420 kts 310°
2026-04-30 10:52 41.52929 22.34421 36149 ft 419 kts 310°
2026-04-30 10:52 41.56834 22.28646 36155 ft 419 kts 310°
2026-04-30 10:53 41.60728 22.22866 36156 ft 417 kts 310°
2026-04-30 10:53 41.64616 22.17080 36165 ft 418 kts 310°
2026-04-30 10:54 41.68497 22.11301 36167 ft 418 kts 310°
2026-04-30 10:54 41.72376 22.05509 36179 ft 418 kts 310°
2026-04-30 10:55 41.76229 21.99756 36191 ft 417 kts 310°
2026-04-30 10:55 41.80124 21.93927 36214 ft 417 kts 310°
2026-04-30 10:56 41.83967 21.88165 36229 ft 417 kts 310°
2026-04-30 10:56 41.87829 21.82363 36241 ft 417 kts 310°
2026-04-30 10:57 41.91681 21.76545 36252 ft 417 kts 309°
2026-04-30 10:57 41.95529 21.70718 36256 ft 417 kts 309°
2026-04-30 10:58 41.99382 21.64905 36259 ft 417 kts 310°
2026-04-30 10:58 42.03240 21.59085 36258 ft 416 kts 310°
2026-04-30 10:59 42.07080 21.53251 36255 ft 416 kts 309°
2026-04-30 10:59 42.10915 21.47412 36255 ft 416 kts 309°
2026-04-30 11:00 42.14719 21.41593 36261 ft 415 kts 309°
2026-04-30 11:00 42.18507 21.35732 36249 ft 414 kts 309°
2026-04-30 11:01 42.22239 21.29804 36260 ft 414 kts 308°
2026-04-30 11:01 42.25953 21.23869 36273 ft 414 kts 308°
2026-04-30 11:02 42.29674 21.17934 36278 ft 414 kts 308°
2026-04-30 11:02 42.33394 21.11993 36288 ft 414 kts 308°
2026-04-30 11:03 42.37113 21.06055 36289 ft 414 kts 308°
2026-04-30 11:04 42.42667 20.97186 36293 ft 413 kts 308°
2026-04-30 11:04 42.46373 20.91239 36293 ft 413 kts 308°
2026-04-30 11:05 42.50076 20.85284 36292 ft 413 kts 308°
2026-04-30 11:05 42.53778 20.79317 36295 ft 413 kts 308°
2026-04-30 11:06 42.57469 20.73353 36293 ft 413 kts 308°
2026-04-30 11:06 42.61159 20.67389 36297 ft 413 kts 308°
2026-04-30 11:07 42.64821 20.61450 36293 ft 413 kts 308°
2026-04-30 11:07 42.68499 20.55460 36301 ft 413 kts 308°
2026-04-30 11:08 42.72171 20.49463 36298 ft 413 kts 308°
2026-04-30 11:08 42.75854 20.43461 36308 ft 413 kts 308°
2026-04-30 11:09 42.79514 20.37483 36303 ft 413 kts 308°
2026-04-30 11:09 42.83190 20.31462 36316 ft 414 kts 308°
2026-04-30 11:10 42.87027 20.25608 36324 ft 415 kts 311°
2026-04-30 11:10 42.91049 20.19948 36330 ft 415 kts 311°
2026-04-30 11:11 42.95064 20.14285 36339 ft 415 kts 311°
2026-04-30 11:11 42.99025 20.08559 36335 ft 414 kts 310°
2026-04-30 11:12 43.02955 20.02814 36336 ft 414 kts 310°
2026-04-30 11:12 43.06896 19.97049 36343 ft 414 kts 310°
2026-04-30 11:13 43.10805 19.91325 36346 ft 414 kts 310°
2026-04-30 11:13 43.14739 19.85562 36350 ft 414 kts 310°
2026-04-30 11:14 43.18674 19.79793 36344 ft 414 kts 310°
2026-04-30 11:14 43.22614 19.74015 36341 ft 414 kts 310°
2026-04-30 11:15 43.26545 19.68221 36338 ft 414 kts 310°
2026-04-30 11:15 43.30471 19.62420 36342 ft 415 kts 310°
2026-04-30 11:16 43.34384 19.56653 36338 ft 415 kts 310°
2026-04-30 11:16 43.38312 19.50836 36336 ft 415 kts 310°
2026-04-30 11:17 43.42233 19.45008 36334 ft 415 kts 310°
2026-04-30 11:17 43.46156 19.39162 36336 ft 415 kts 310°
2026-04-30 11:18 43.50078 19.33318 36330 ft 416 kts 310°
2026-04-30 11:18 43.55959 19.24530 36323 ft 416 kts 310°
2026-04-30 11:19 43.59873 19.18661 36318 ft 416 kts 310°
2026-04-30 11:19 43.63789 19.12777 36313 ft 416 kts 310°
2026-04-30 11:20 43.67705 19.06881 36317 ft 417 kts 310°
2026-04-30 11:20 43.71590 19.01013 36320 ft 417 kts 310°
2026-04-30 11:21 43.75506 18.95108 36312 ft 417 kts 310°
2026-04-30 11:21 43.79424 18.89181 36312 ft 417 kts 310°
2026-04-30 11:22 43.83340 18.83246 36312 ft 416 kts 310°
2026-04-30 11:22 43.87256 18.77298 36307 ft 418 kts 310°
2026-04-30 11:23 43.91164 18.71348 36490 ft 418 kts 310°
2026-04-30 11:23 43.95131 18.65269 36298 ft 428 kts 310°
2026-04-30 11:24 43.97136 18.62195 36302 ft 430 kts 310°
2026-04-30 11:24 44.01134 18.56081 36304 ft 431 kts 310°
2026-04-30 11:25 44.07177 18.46804 36302 ft 432 kts 310°
2026-04-30 11:26 44.15239 18.34375 36311 ft 433 kts 310°
2026-04-30 11:26 44.19266 18.28146 36313 ft 433 kts 310°
2026-04-30 11:27 44.23292 18.21896 36317 ft 433 kts 310°
2026-04-30 11:27 44.27325 18.15631 36320 ft 434 kts 310°
2026-04-30 11:28 44.33366 18.06211 36319 ft 434 kts 310°
2026-04-30 11:29 44.37316 18.00050 36324 ft 435 kts 310°
2026-04-30 11:29 44.43369 17.90557 36332 ft 436 kts 310°
2026-04-30 11:30 44.48751 17.82097 36343 ft 437 kts 311°
2026-04-30 11:31 44.53458 17.74678 36349 ft 438 kts 311°
2026-04-30 11:31 44.56851 17.69323 36355 ft 438 kts 311°
2026-04-30 11:32 44.60897 17.62922 36356 ft 438 kts 311°
2026-04-30 11:32 44.64913 17.56553 36357 ft 438 kts 311°
2026-04-30 11:33 44.70966 17.46899 36362 ft 439 kts 311°
2026-04-30 11:33 44.75001 17.40458 36367 ft 439 kts 311°
2026-04-30 11:34 44.79041 17.34004 36364 ft 439 kts 311°
2026-04-30 11:34 44.83058 17.27566 35601 ft 432 kts 311°
2026-04-30 11:35 44.85045 17.24378 34220 ft 432 kts 311°
2026-04-30 11:35 44.87008 17.21222 33276 ft 421 kts 311°
2026-04-30 11:35 44.88917 17.18151 32452 ft 417 kts 311°
2026-04-30 11:35 44.90833 17.15062 31512 ft 420 kts 312°
2026-04-30 11:36 44.92742 17.11985 30635 ft 422 kts 312°
2026-04-30 11:36 44.94683 17.08849 29508 ft 426 kts 313°
2026-04-30 11:36 44.96633 17.05695 28429 ft 428 kts 313°
2026-04-30 11:36 44.98601 17.02515 27306 ft 430 kts 313°
2026-04-30 11:37 45.00582 16.99320 26126 ft 434 kts 313°
2026-04-30 11:37 45.02587 16.96093 24977 ft 437 kts 313°
2026-04-30 11:37 45.04567 16.92899 23859 ft 427 kts 314°
2026-04-30 11:37 45.06506 16.89764 22689 ft 421 kts 313°
2026-04-30 11:38 45.08430 16.86642 21903 ft 420 kts 313°
2026-04-30 11:38 45.10345 16.83536 21081 ft 418 kts 313°
2026-04-30 11:38 45.12252 16.80441 20263 ft 416 kts 313°
2026-04-30 11:38 45.14126 16.77397 19471 ft 414 kts 313°
2026-04-30 11:39 45.16017 16.74327 18679 ft 412 kts 313°
2026-04-30 11:39 45.17921 16.71232 17830 ft 409 kts 313°
2026-04-30 11:39 45.19757 16.68248 17107 ft 405 kts 314°
2026-04-30 11:39 45.21762 16.65498 16587 ft 395 kts 319°
2026-04-30 11:40 45.23746 16.62923 16452 ft 379 kts 319°
2026-04-30 11:40 45.25649 16.60433 16320 ft 364 kts 319°
2026-04-30 11:40 45.27473 16.58041 16188 ft 350 kts 319°
2026-04-30 11:40 45.29228 16.55738 16061 ft 337 kts 319°
2026-04-30 11:41 45.30919 16.53513 15937 ft 325 kts 320°
2026-04-30 11:41 45.32549 16.51370 15811 ft 314 kts 320°
2026-04-30 11:41 45.34126 16.49299 15678 ft 304 kts 320°
2026-04-30 11:41 45.35620 16.47219 15461 ft 299 kts 310°
2026-04-30 11:42 45.36532 16.44561 15393 ft 304 kts 285°
2026-04-30 11:42 45.36539 16.41531 15139 ft 316 kts 259°
2026-04-30 11:42 45.35499 16.38732 14669 ft 327 kts 231°
2026-04-30 11:42 45.33943 16.36371 14185 ft 328 kts 229°
2026-04-30 11:43 45.32390 16.34051 13611 ft 321 kts 229°
2026-04-30 11:43 45.30866 16.31759 13074 ft 317 kts 229°
2026-04-30 11:43 45.29364 16.29483 12604 ft 315 kts 229°
2026-04-30 11:43 45.27868 16.27209 12126 ft 314 kts 229°
2026-04-30 11:44 45.26405 16.24976 11661 ft 312 kts 228°
2026-04-30 11:44 45.25014 16.22551 11170 ft 313 kts 243°
2026-04-30 11:44 45.24393 16.19723 10716 ft 302 kts 269°
2026-04-30 11:44 45.24641 16.16812 10204 ft 299 kts 293°
2026-04-30 11:45 45.25696 16.14336 9555 ft 288 kts 318°
2026-04-30 11:45 45.27132 16.12407 8998 ft 284 kts 321°
2026-04-30 11:45 45.28580 16.10497 8546 ft 283 kts 320°
2026-04-30 11:45 45.30023 16.08585 8103 ft 283 kts 321°
2026-04-30 11:46 45.31454 16.06682 7775 ft 280 kts 321°
2026-04-30 11:46 45.32868 16.04794 7561 ft 277 kts 320°
2026-04-30 11:46 45.34270 16.02917 7319 ft 277 kts 320°
2026-04-30 11:46 45.35667 16.01045 7074 ft 276 kts 320°
2026-04-30 11:47 45.37066 15.99175 6837 ft 275 kts 320°
2026-04-30 11:47 45.38459 15.97313 6584 ft 274 kts 320°
2026-04-30 11:47 45.39845 15.95465 6339 ft 272 kts 320°
2026-04-30 11:47 45.41224 15.93626 6113 ft 271 kts 320°
2026-04-30 11:48 45.42591 15.91797 5864 ft 268 kts 320°
2026-04-30 11:48 45.43946 15.89980 5628 ft 266 kts 319°
2026-04-30 11:48 45.45298 15.88171 5390 ft 265 kts 320°
2026-04-30 11:48 45.46644 15.86369 5162 ft 265 kts 320°
2026-04-30 11:49 45.47964 15.84605 4925 ft 263 kts 320°
2026-04-30 11:49 45.49296 15.82816 4686 ft 262 kts 320°
2026-04-30 11:49 45.50671 15.81133 4428 ft 258 kts 330°
2026-04-30 11:49 45.52248 15.80094 4313 ft 241 kts 348°
2026-04-30 11:50 45.53860 15.79761 4193 ft 228 kts
2026-04-30 11:50 45.55398 15.80045 4066 ft 220 kts 18°
2026-04-30 11:50 45.56774 15.80863 3974 ft 209 kts 32°
2026-04-30 11:50 45.57892 15.82073 3988 ft 196 kts 45°
2026-04-30 11:51 45.58796 15.83432 3995 ft 182 kts 46°
2026-04-30 11:51 45.59658 15.84728 4031 ft 180 kts 46°
2026-04-30 11:51 45.60523 15.86031 3993 ft 183 kts 46°
2026-04-30 11:51 45.61381 15.87325 3830 ft 172 kts 46°
2026-04-30 11:52 45.62178 15.88528 3625 ft 163 kts 46°
2026-04-30 11:52 45.62939 15.89676 3401 ft 157 kts 47°
2026-04-30 11:52 45.63652 15.90752 3173 ft 143 kts 46°
2026-04-30 11:52 45.64317 15.91756 3000 ft 137 kts 45°
2026-04-30 11:53 45.64956 15.92722 2822 ft 135 kts 46°
2026-04-30 11:53 45.65599 15.93695 2628 ft 134 kts 47°
2026-04-30 11:53 45.66243 15.94669 2450 ft 133 kts 46°
2026-04-30 11:53 45.66892 15.95650 2293 ft 138 kts 46°
2026-04-30 11:54 45.67554 15.96659 1938 ft 138 kts 47°
2026-04-30 11:54 45.68175 15.97604 1781 ft 129 kts 46°
2026-04-30 11:54 45.68807 15.98555 1660 ft 131 kts 47°
2026-04-30 11:54 45.69432 15.99492 1513 ft 133 kts 48°
2026-04-30 11:55 45.70078 16.00474 1358 ft 136 kts 46°
2026-04-30 11:55 45.70704 16.01432 1098 ft 129 kts 46°
2026-04-30 11:55 45.71334 16.02389 931 ft 135 kts 48°
2026-04-30 11:55 45.71980 16.03363 746 ft 135 kts 47°
2026-04-30 11:56 45.72610 16.04320 571 ft 129 kts 46°
2026-04-30 11:56 45.73218 16.05243 391 ft 127 kts 47°
2026-04-30 11:56 45.73760 16.06064 373 ft 96 kts 45°
2026-04-30 11:56 45.74109 16.06597 361 ft 59 kts 47°
2026-04-30 11:57 45.74360 16.06979 364 ft 46 kts 46°
2026-04-30 11:57 45.74560 16.07283 361 ft 38 kts 47°
2026-04-30 11:57 45.74674 16.07454 359 ft 11 kts 46°
2026-04-30 11:57 45.74649 16.07552 356 ft 14 kts 137°
2026-04-30 11:58 45.74572 16.07651 356 ft 16 kts 138°
2026-04-30 11:58 45.74485 16.07768 353 ft 20 kts 137°
2026-04-30 11:58 45.74388 16.07896 359 ft 12 kts 144°
2026-04-30 11:58 45.74310 16.07844 358 ft 16 kts 227°
2026-04-30 11:59 45.74231 16.07726 363 ft 15 kts 226°
2026-04-30 11:59 45.74173 16.07634 359 ft 12 kts 228°
2026-04-30 11:59 45.74118 16.07550 358 ft 11 kts 226°
2026-04-30 11:59 45.74074 16.07515 358 ft 6 kts 171°
2026-04-30 12:00 45.74042 16.07549 355 ft 5 kts 136°
2026-04-30 12:00 45.74019 16.07582 354 ft 3 kts 135°
2026-04-30 12:00 45.74012 16.07591 354 ft 0 kts 135°
2026-04-30 12:00 45.74009 16.07595 354 ft 0 kts 134°